Location: Coffee Creek Observatory
(38.8077°N, 94.7179°W)
Time: 12:59:46
(UTC-06:00)

Amateur Radio Satellites - All Passes

Search period start: 21 November 2014 12:29
Search period end: 22 November 2014 12:29
Location: Coffee Creek Observatory, 38.8077°N, 94.7179°W

Satellite Date Start Highest point End Downlink Frequencies (MHz)
Time Altitude Azimuth
Oscar 19 21 Nov 12:53:06 12:58:10 69° 74° (ENE) 13:03:16 437.125/150
SO-50 21 Nov 12:56:53 13:00:44 23° 47° (NE) 13:04:36 436.795
CUBEBUG 1 21 Nov 12:59:48 13:01:55 13° 296° (WNW) 13:04:00 437.445
SPROUT 21 Nov 13:07:06 13:11:09 43° 287° (WNW) 13:15:11 437.525
ITUPSAT 1 21 Nov 13:13:04 13:17:21 31° 97° (E) 13:21:36 437.325
TISAT 1 21 Nov 13:13:46 13:17:29 31° 290° (WNW) 13:21:11 437.305
CUSAT 1 21 Nov 13:24:59 13:27:52 36° 97° (E) 13:30:23 437.405
SWISSCUBE 21 Nov 13:25:50 13:30:29 47° 100° (E) 13:35:05 437.505
DANDE 21 Nov 13:28:07 13:31:05 32° 97° (E) 13:33:37 436.750
ITAMSAT 1 21 Nov 13:34:31 13:39:42 67° 74° (ENE) 13:44:53 435.822/435.867
Gurwin Techsat 1B 21 Nov 13:36:58 13:41:52 39° 70° (ENE) 13:46:47 435.225
AUBIESAT-1 21 Nov 13:41:54 13:46:50 89° 108° (ESE) 13:51:43 437.475
M-CUBED/EXP-1 PRIME 21 Nov 13:43:26 13:48:23 82° 289° (WNW) 13:53:17 437.505
AO-7 21 Nov 13:44:51 13:50:00 18° 51° (NE) 13:55:09 29.400- 29.500
BEESAT 21 Nov 13:57:58 14:02:48 86° 284° (WNW) 14:07:35 436.000
KKS-1 21 Nov 14:10:59 14:14:42 26° 96° (E) 14:18:24 437.445
YUBILEINY 21 Nov 14:21:54 14:30:39 76° 82° (E) 14:39:19 435.215
HORYU 2 21 Nov 14:21:58 14:26:10 45° 72° (ENE) 14:30:24 437.375
Oscar 19 21 Nov 14:35:51 14:37:59 13° 270° (W) 14:40:07 437.125/150
SO-50 21 Nov 14:36:50 14:41:32 48° 244° (WSW) 14:46:14 436.795
ITUPSAT 1 21 Nov 14:51:08 14:55:06 26° 293° (WNW) 14:59:03 437.325
JAS-2 21 Nov 14:57:36 15:01:36 15° 54° (NE) 15:05:41 435.910
SWISSCUBE 21 Nov 15:04:46 15:07:58 18° 295° (WNW) 15:11:09 437.505
STARS 21 Nov 15:17:01 15:21:25 84° 284° (WNW) 15:25:48 437.465
ITAMSAT 1 21 Nov 15:17:06 15:19:37 14° 269° (W) 15:22:09 435.822/435.867
Gurwin Techsat 1B 21 Nov 15:17:40 15:21:55 24° 265° (W) 15:26:12 435.225
AUBIESAT-1 21 Nov 15:19:20 15:21:06 12° 304° (WNW) 15:22:51 437.475
M-CUBED/EXP-1 PRIME 21 Nov 15:21:36 15:22:37 11° 304° (NW) 15:23:39 437.505
AO-7 21 Nov 15:33:16 15:41:33 83° 71° (ENE) 15:49:53 29.400- 29.500
PHONESAT 2.4 21 Nov 15:45:05 15:47:10 15° 145° (SE) 15:49:16 2401.200-2431.200
KKS-1 21 Nov 15:47:33 15:51:16 27° 291° (WNW) 15:54:59 437.445
HORYU 2 21 Nov 16:00:30 16:03:04 15° 267° (W) 16:05:39 437.375
RS-15 21 Nov 16:00:56 16:10:47 40° 108° (ESE) 16:20:32 29.354- 29.394
O/OREOS (USA 219) 21 Nov 16:08:29 16:12:06 24° 60° (ENE) 16:15:42 437.305
VERMONT LUNAR 21 Nov 16:15:13 16:18:27 31° 152° (SSE) 16:21:42 437.305
MaSat-1 21 Nov 16:15:43 16:18:54 74° 114° (ESE) 16:21:47 437.345
MOZHAYETS 4 21 Nov 16:16:41 16:19:34 16° 92° (E) 16:22:26
CUTE-I 21 Nov 16:20:23 16:22:45 13° 60° (ENE) 16:25:08 437.470
YUBILEINY 21 Nov 16:20:32 16:26:24 21° 280° (W) 16:32:17 435.215
JAS-2 21 Nov 16:37:51 16:45:13 73° 73° (ENE) 16:53:04 435.910
Cubesat XI-IV 21 Nov 17:14:18 17:19:18 42° 70° (ENE) 17:24:19 437.490
PHONESAT 2.4 21 Nov 17:21:51 17:25:31 59° 159° (SSE) 17:29:11 2401.200-2431.200
AO-7 21 Nov 17:29:42 17:35:09 19° 268° (W) 17:40:39 29.400- 29.500
PRISM 21 Nov 17:40:22 17:43:41 22° 95° (E) 17:46:59 437.425
O/OREOS (USA 219) 21 Nov 17:47:35 17:51:30 30° 256° (WSW) 17:55:24 437.305
MOZHAYETS 4 21 Nov 17:52:33 17:57:01 46° 287° (WNW) 18:01:27
VERMONT LUNAR 21 Nov 17:53:08 17:56:47 84° 347° (NNW) 18:00:26 437.305
STRAND 1 21 Nov 17:54:20 17:56:19 12° 90° (E) 17:58:17 437.568
CUTE-I 21 Nov 17:56:43 18:02:05 82° 257° (WSW) 18:07:29 437.470
RS-15 21 Nov 18:11:58 18:22:40 57° 309° (NW) 18:33:27 29.354- 29.394
GONETS M04 21 Nov 18:16:46 18:21:51 16° 62° (ENE) 18:26:52
JAS-2 21 Nov 18:25:25 18:30:52 22° 271° (W) 18:36:34 435.910
Cubesat XI-IV 21 Nov 18:55:16 18:59:30 24° 265° (W) 19:03:46 437.490
PHONESAT 2.4 21 Nov 19:00:38 19:04:21 67° 356° (N) 19:08:03 2401.200-2431.200
PRISM 21 Nov 19:15:34 19:19:14 29° 291° (WNW) 19:22:52 437.425
CUBESAT XI-V 21 Nov 19:19:46 19:24:28 79° 284° (WNW) 19:29:06 437.345
HO-68 21 Nov 19:20:54 19:27:05 33° 63° (ENE) 19:33:17 435.675
STRAND 1 21 Nov 19:30:53 19:36:00 71° 286° (WNW) 19:41:03 437.568
VERMONT LUNAR 21 Nov 19:31:49 19:35:26 67° 5° (N) 19:39:04 437.305
SHINDAISAT 21 Nov 19:42:23 19:43:10 12° 52° (NE) 19:43:57 437.305
SEEDS 21 Nov 19:42:47 19:45:48 20° 68° (ENE) 19:48:50 437.485
GOMX 1 21 Nov 19:44:41 19:48:10 20° 68° (ENE) 19:51:31 467.674
BRITE-PL 21 Nov 19:47:32 19:52:00 30° 71° (ENE) 19:56:12 437.365/2234.400
AIST 1 21 Nov 19:57:55 20:01:59 39° 92° (E) 20:06:07
CANX-2 21 Nov 20:02:51 20:06:48 41° 73° (ENE) 20:10:47 2200.000
AAUSAT CUBESAT 2 21 Nov 20:08:51 20:12:25 28° 70° (ENE) 20:16:00 437.432
GONETS M04 21 Nov 20:11:12 20:20:06 83° 83° (E) 20:28:53
COMPASS 1 21 Nov 20:20:18 20:24:14 43° 73° (ENE) 20:28:13 437.405
PCSat 21 Nov 20:22:47 20:27:58 49° 112° (ESE) 20:33:11 145.827
RS-15 21 Nov 20:30:33 20:38:12 21° 339° (NNW) 20:45:57 29.354- 29.394
CINEMA 3 21 Nov 20:36:18 20:40:10 29° 71° (ENE) 20:43:54 145.822/145.860
CUTE 1.7 & AOD 2 21 Nov 20:37:53 20:42:05 82° 258° (WSW) 20:46:20 437.475
DELFI C3 21 Nov 20:38:34 20:41:56 26° 70° (ENE) 20:45:19 145.870
PHONESAT 2.4 21 Nov 20:39:35 20:43:19 86° 13° (NNE) 20:47:01 2401.200-2431.200
FUNcube-1 21 Nov 20:40:46 20:43:02 14° 66° (ENE) 20:45:16 145.935
CUBEBUG 2 21 Nov 20:43:15 20:46:30 21° 69° (ENE) 20:49:41 437.445
UKube-1 21 Nov 20:43:44 20:47:41 35° 71° (ENE) 20:51:39 .
UWE-3 21 Nov 20:53:25 20:56:49 23° 69° (ENE) 21:00:10 435.000/436.395/437.385
Oscar 11 21 Nov 20:58:29 21:02:40 54° 74° (ENE) 21:06:53 145.826/435.025
DOVE 4 21 Nov 21:01:09 21:05:58 89° 258° (WSW) 21:10:30 437.250
HO-68 21 Nov 21:07:39 21:14:31 48° 260° (W) 21:21:26 435.675
VERMONT LUNAR 21 Nov 21:10:23 21:13:58 56° 201° (SSW) 21:17:31 437.305
DX 1 21 Nov 21:13:57 21:18:20 80° 76° (ENE) 21:22:44 434.975-435.025
SEEDS 21 Nov 21:17:41 21:21:25 32° 263° (W) 21:25:12 437.485
GOMX 1 21 Nov 21:21:19 21:26:03 42° 261° (W) 21:30:29 467.674
VELOX 1 21 Nov 21:23:11 21:27:04 30° 69° (ENE) 21:30:57 145.980
BRITE-PL 21 Nov 21:25:53 21:30:26 29° 263° (W) 21:34:43 437.365/2234.400
BEESAT 3 21 Nov 21:34:16 21:38:21 82° 301° (WNW) 21:42:32 437.485
AIST 1 21 Nov 21:37:05 21:39:50 16° 288° (WNW) 21:42:37
ZACube-1 21 Nov 21:38:20 21:42:33 65° 75° (ENE) 21:46:43 437.345
CANX-2 21 Nov 21:40:33 21:42:56 15° 268° (W) 21:45:20 2200.000
AAUSAT CUBESAT 2 21 Nov 21:44:55 21:48:05 21° 266° (W) 21:51:17 437.432
BEESAT 2 21 Nov 21:45:47 21:49:52 68° 302° (WNW) 21:54:02 435.950
AISAT 21 Nov 21:45:50 21:50:13 54° 73° (ENE) 21:54:36 437.250
TIGRISAT 21 Nov 21:56:35 21:58:58 14° 93° (E) 22:01:22 435.000
HUMSAT D 21 Nov 21:57:26 22:01:33 64° 75° (ENE) 22:05:39 437.325/437.525
COMPASS 1 21 Nov 21:58:04 22:00:12 14° 268° (W) 22:02:20 437.405
AIST 2 21 Nov 21:58:57 22:03:09 81° 120° (ESE) 22:07:27 435.215
UNISAT 6 21 Nov 22:06:50 22:10:02 19° 94° (E) 22:13:15 437.425
PCSat 21 Nov 22:07:15 22:11:37 24° 310° (NW) 22:16:01 145.827
GONETS M04 21 Nov 22:10:11 22:15:43 19° 282° (WNW) 22:21:14
POLYITAN 1 21 Nov 22:11:05 22:13:15 14° 92° (E) 22:15:25 437.675
CINEMA 3 21 Nov 22:13:43 22:17:21 24° 264° (W) 22:20:52 145.822/145.860
DELFI C3 21 Nov 22:13:59 22:17:11 22° 265° (W) 22:20:25 145.870
QB50P2 21 Nov 22:14:48 22:17:18 15° 93° (E) 22:19:48 145.880/145.840
FUNcube-1 21 Nov 22:14:54 22:19:01 46° 261° (W) 22:23:04 145.935
CUBEBUG 1 21 Nov 22:16:53 22:21:01 39° 72° (ENE) 22:25:10 437.445
50 SAT 21 Nov 22:17:54 22:21:58 86° 257° (WSW) 22:26:01 437.505
PHONESAT 2.4 21 Nov 22:18:39 22:21:55 29° 209° (SSW) 22:25:10 2401.200-2431.200
CUBEBUG 2 21 Nov 22:19:11 22:23:02 31° 263° (W) 22:26:49 437.445
UKube-1 21 Nov 22:20:49 22:23:56 19° 266° (W) 22:27:03 .
DUCHIFAT 1 21 Nov 22:23:34 22:26:35 19° 94° (E) 22:29:34 145.980
SPROUT 21 Nov 22:27:27 22:28:34 11° 63° (ENE) 22:29:42 437.525
UWE-3 21 Nov 22:29:35 22:33:15 27° 264° (W) 22:36:52 435.000/436.395/437.385
TISAT 1 21 Nov 22:31:12 22:33:29 14° 65° (ENE) 22:35:46 437.305
ANTELSAT 21 Nov 22:34:14 22:38:23 39° 98° (E) 22:42:35 437.575/2403.000
Oscar 11 21 Nov 22:37:35 22:39:09 12° 269° (W) 22:40:45 145.826/435.025
ESTCUBE 1 21 Nov 22:40:32 22:45:04 76° 76° (ENE) 22:49:38 437.505/2401.250
NANOSAT C BR1 21 Nov 22:41:35 22:45:20 30° 97° (E) 22:49:03 145.865
RS-15 21 Nov 22:49:21 22:56:36 19° 16° (NNE) 23:03:58 29.354- 29.394
VERMONT LUNAR 21 Nov 22:50:11 22:51:58 13° 216° (SW) 22:53:45 437.305
QB50P1 21 Nov 22:50:38 22:54:37 39° 98° (E) 22:58:33 145.935-145.965
VELOX 1 21 Nov 23:00:01 23:03:38 24° 265° (W) 23:07:16 145.980
M-CUBED/EXP-1 PRIME 21 Nov 23:01:32 23:02:07 10° 55° (NE) 23:02:42 437.505
POPSAT HIP 1 21 Nov 23:14:36 23:18:50 77° 102° (ESE) 23:23:02 437.405
BEESAT 3 21 Nov 23:16:45 23:17:17 10° 320° (NW) 23:17:50 437.485
AISAT 21 Nov 23:25:02 23:27:09 13° 268° (W) 23:29:16 437.250
BUGSAT 1 21 Nov 23:26:03 23:30:10 87° 103° (ESE) 23:34:14 437.445
BEESAT 21 Nov 23:30:22 23:30:55 10° 60° (ENE) 23:31:27 436.000
TIGRISAT 21 Nov 23:31:44 23:35:56 47° 287° (WNW) 23:40:13 435.000
AIST 2 21 Nov 23:40:28 23:42:22 13° 318° (NW) 23:44:17 435.215
UNISAT 6 21 Nov 23:42:53 23:46:54 35° 289° (WNW) 23:50:59 437.425
POLYITAN 1 21 Nov 23:45:24 23:49:26 45° 287° (WNW) 23:53:27 437.675
QB50P2 21 Nov 23:49:26 23:53:24 40° 288° (WNW) 23:57:21 145.880/145.840
CUBEBUG 1 21 Nov 23:54:33 23:57:32 18° 267° (W) 00:00:32 437.445
DUCHIFAT 1 21 Nov 23:58:45 00:02:31 32° 289° (WNW) 00:06:16 145.980
SPROUT 21 Nov 23:59:47 00:04:05 67° 259° (WSW) 00:08:24 437.525
CUSAT 1 22 Nov 00:02:41 00:06:37 34° 79° (E) 00:11:43 437.405
TISAT 1 22 Nov 00:04:45 00:08:54 49° 260° (W) 00:13:04 437.305
DANDE 22 Nov 00:08:07 00:11:50 32° 79° (E) 00:16:38 436.750
ANTELSAT 22 Nov 00:11:52 00:14:55 19° 293° (WNW) 00:17:59 437.575/2403.000
ISS 22 Nov 00:12:09 00:14:39 21° 131° (SE) 00:17:11 145.825
NANOSAT C BR1 22 Nov 00:17:53 00:21:02 21° 292° (WNW) 00:24:09 145.865
ITUPSAT 1 22 Nov 00:18:55 00:23:10 32° 69° (ENE) 00:27:26 437.325
QB50P1 22 Nov 00:27:31 00:30:11 17° 294° (WNW) 00:32:51 145.935-145.965
AUBIESAT-1 22 Nov 00:30:39 00:34:30 84° 253° (WSW) 00:38:46 437.475
SWISSCUBE 22 Nov 00:31:19 00:35:54 47° 72° (ENE) 00:40:32 437.505
M-CUBED/EXP-1 PRIME 22 Nov 00:32:37 00:36:26 72° 254° (WSW) 00:40:40 437.505
RS-15 22 Nov 01:02:07 01:12:49 47° 47° (NE) 01:23:54 29.354- 29.394
BEESAT 22 Nov 01:03:13 01:08:00 87° 257° (WSW) 01:12:50 436.000
Oscar 19 22 Nov 01:06:29 01:10:50 27° 96° (E) 01:15:10 437.125/150
KKS-1 22 Nov 01:08:39 01:12:01 21° 67° (ENE) 01:15:24 437.445
YUBILEINY 22 Nov 01:28:53 01:33:51 17° 77° (ENE) 01:38:48 435.215
CUSAT 1 22 Nov 01:46:17 01:49:42 21° 265° (W) 01:53:51 437.405
ISS 22 Nov 01:48:01 01:51:08 39° 327° (NNW) 01:54:15 145.825
ITAMSAT 1 22 Nov 01:49:21 01:53:40 26° 95° (E) 01:57:57 435.822/435.867
DANDE 22 Nov 01:51:58 01:55:15 21° 265° (W) 01:59:17 436.750
Gurwin Techsat 1B 22 Nov 01:55:28 01:58:54 17° 92° (E) 02:02:18 435.225
MaSat-1 22 Nov 01:56:29 01:58:49 88° 249° (WSW) 02:01:12 437.345
ITUPSAT 1 22 Nov 01:57:06 02:01:03 25° 265° (W) 02:05:01 437.325
SWISSCUBE 22 Nov 02:10:56 02:14:00 17° 267° (W) 02:17:06 437.505
STARS 22 Nov 02:12:53 02:17:16 73° 75° (ENE) 02:21:41 437.465
KKS-1 22 Nov 02:44:25 02:48:27 33° 262° (W) 02:52:30 437.445
JUGNU 22 Nov 02:44:32 02:46:21 11° 177° (S) 02:48:11 437.505
Oscar 19 22 Nov 02:45:33 02:50:09 34° 291° (WNW) 02:54:46 437.125/150
RS-15 22 Nov 03:14:35 03:25:21 53° 249° (WSW) 03:36:36 29.354- 29.394
MOZHAYETS 4 22 Nov 03:18:34 03:20:54 14° 64° (ENE) 03:23:14
YUBILEINY 22 Nov 03:20:30 03:29:20 90° 276° (W) 03:38:11 435.215
ISS 22 Nov 03:27:17 03:28:31 12° 346° (NNW) 03:29:44 145.825
ITAMSAT 1 22 Nov 03:28:30 03:33:10 35° 291° (WNW) 03:37:49 435.822/435.867
Gurwin Techsat 1B 22 Nov 03:34:00 03:39:11 55° 288° (WNW) 03:44:20 435.225
AO-7 22 Nov 03:37:02 03:44:06 30° 96° (E) 03:51:08 29.400- 29.500
HORYU 2 22 Nov 03:51:11 03:55:40 72° 285° (WNW) 04:00:08 437.375
JAS-2 22 Nov 03:55:24 03:55:51 10° 82° (E) 03:56:17 435.910
PRISM 22 Nov 04:31:12 04:33:38 15° 65° (ENE) 04:36:04 437.425
JUGNU 22 Nov 04:33:40 04:34:27 10° 187° (S) 04:35:15 437.505
SRMSAT 22 Nov 04:34:48 04:36:47 12° 179° (S) 04:38:45 437.500
SO-50 22 Nov 04:50:07 04:54:36 77° 119° (ESE) 04:59:14 436.795
MOZHAYETS 4 22 Nov 04:53:07 04:57:37 57° 260° (W) 05:02:10
STRAND 1 22 Nov 05:08:35 05:11:53 18° 63° (ENE) 05:15:11 437.568
PCSat 22 Nov 05:12:06 05:16:55 31° 53° (NE) 05:21:41 145.827
YUBILEINY 22 Nov 05:21:48 05:27:22 18° 296° (WNW) 05:32:57 435.215
AO-7 22 Nov 05:29:05 05:37:13 59° 293° (WNW) 05:45:21 29.400- 29.500
Cubesat XI-IV 22 Nov 05:33:55 05:37:29 18° 93° (E) 05:41:01 437.490
JAS-2 22 Nov 05:34:58 05:42:16 74° 102° (ESE) 05:48:41 435.910
BEESAT 3 22 Nov 05:55:38 05:59:37 41° 54° (NE) 06:03:33 437.485
PRISM 22 Nov 06:04:48 06:08:48 44° 261° (W) 06:12:51 437.425
BEESAT 2 22 Nov 06:07:22 06:11:28 49° 55° (NE) 06:15:31 435.950
CUTE-I 22 Nov 06:15:26 06:20:32 44° 99° (E) 06:25:34 437.470
O/OREOS (USA 219) 22 Nov 06:19:12 06:23:14 33° 104° (ESE) 06:27:16 437.305
CUBESAT XI-V 22 Nov 06:21:43 06:26:26 86° 77° (ENE) 06:31:11 437.345
AIST 2 22 Nov 06:22:27 06:26:27 36° 53° (NE) 06:30:24 435.215
SO-50 22 Nov 06:33:07 06:35:44 15° 319° (NW) 06:38:23 436.795
ISS 22 Nov 06:41:19 06:44:02 23° 27° (NNE) 06:46:45 145.825
STRAND 1 22 Nov 06:45:32 06:50:35 56° 259° (W) 06:55:40 437.568
PCSat 22 Nov 06:55:25 07:00:20 36° 250° (WSW) 07:05:13 145.827
Cubesat XI-IV 22 Nov 07:12:42 07:17:52 53° 288° (WNW) 07:23:00 437.490
GONETS M04 22 Nov 07:17:35 07:23:07 19° 78° (ENE) 07:28:39
JAS-2 22 Nov 07:21:19 07:26:22 21° 302° (WNW) 07:31:05 435.910
AO-7 22 Nov 07:25:11 07:28:15 13° 314° (NW) 07:31:20 29.400- 29.500
BEESAT 3 22 Nov 07:34:46 07:37:31 17° 250° (WSW) 07:40:14 437.485
AIST 1 22 Nov 07:43:51 07:48:15 72° 265° (W) 07:52:34
BEESAT 2 22 Nov 07:47:04 07:49:20 14° 251° (WSW) 07:51:34 435.950
CUTE-I 22 Nov 07:56:13 08:00:16 23° 295° (WNW) 08:04:18 437.470
O/OREOS (USA 219) 22 Nov 07:59:10 08:02:41 22° 301° (WNW) 08:06:12 437.305
AIST 2 22 Nov 08:01:38 08:04:51 21° 249° (WSW) 08:08:00 435.215
ISS 22 Nov 08:17:39 08:20:49 44° 224° (SW) 08:23:59 145.825
CUTE 1.7 & AOD 2 22 Nov 08:25:40 08:28:44 19° 94° (E) 08:31:47 437.475
HO-68 22 Nov 08:36:41 08:43:13 36° 98° (E) 08:49:41 435.675
Oscar 11 22 Nov 08:49:50 08:50:58 11° 90° (E) 08:52:06 145.826/435.025
TIGRISAT 22 Nov 08:56:13 08:57:28 11° 63° (ENE) 08:58:44 435.000
DOVE 4 22 Nov 09:02:24 09:05:45 23° 96° (E) 09:09:09 437.250
SEEDS 22 Nov 09:03:22 09:07:27 44° 99° (E) 09:11:32 437.485
DX 1 22 Nov 09:05:20 09:07:50 15° 93° (E) 09:10:20 434.975-435.025
UNISAT 6 22 Nov 09:06:09 09:08:35 15° 65° (ENE) 09:11:02 437.425
QB50P2 22 Nov 09:08:43 09:09:56 11° 63° (ENE) 09:11:08 145.880/145.840
GONETS M04 22 Nov 09:09:56 09:18:44 83° 277° (W) 09:27:38
DUCHIFAT 1 22 Nov 09:16:36 09:18:42 14° 65° (ENE) 09:20:48 145.980
GOMX 1 22 Nov 09:24:24 09:28:30 59° 101° (E) 09:32:39 467.674
CANX-2 22 Nov 09:25:16 09:29:34 79° 284° (WNW) 09:33:51 2200.000
AAUSAT CUBESAT 2 22 Nov 09:28:44 09:32:57 66° 101° (E) 09:37:09 437.432
ZACube-1 22 Nov 09:30:10 09:32:13 13° 92° (E) 09:34:17 437.345
BRITE-PL 22 Nov 09:31:35 09:35:45 79° 283° (WNW) 09:39:54 437.365/2234.400
ANTELSAT 22 Nov 09:32:55 09:36:37 29° 70° (ENE) 09:40:19 437.575/2403.000
NANOSAT C BR1 22 Nov 09:34:01 09:37:14 21° 68° (ENE) 09:40:27 145.865
AISAT 22 Nov 09:41:02 09:42:21 11° 91° (E) 09:43:40 437.250
COMPASS 1 22 Nov 09:41:03 09:45:18 78° 284° (WNW) 09:49:32 437.405
QB50P1 22 Nov 09:42:54 09:46:28 26° 69° (ENE) 09:50:02 145.935-145.965
HUMSAT D 22 Nov 09:45:44 09:47:07 11° 91° (E) 09:48:31 437.325/437.525
DELFI C3 22 Nov 09:55:15 09:59:19 54° 100° (E) 10:03:22 145.870
CUTE 1.7 & AOD 2 22 Nov 10:00:52 10:04:44 34° 289° (WNW) 10:08:35 437.475
50 SAT 22 Nov 10:01:47 10:04:04 15° 93° (E) 10:06:21 437.505
FUNcube-1 22 Nov 10:04:55 10:08:45 33° 98° (E) 10:12:37 145.935
POPSAT HIP 1 22 Nov 10:06:29 10:10:36 49° 73° (ENE) 10:14:43 437.405
UKube-1 22 Nov 10:08:36 10:12:58 79° 103° (ESE) 10:17:17 .
CINEMA 3 22 Nov 10:08:54 10:13:06 86° 103° (ESE) 10:17:23 145.822/145.860
CUBEBUG 2 22 Nov 10:11:06 10:15:15 55° 100° (E) 10:19:28 437.445
BUGSAT 1 22 Nov 10:14:58 10:19:06 51° 74° (ENE) 10:23:14 437.445
UWE-3 22 Nov 10:20:09 10:24:19 61° 101° (E) 10:28:34 435.000/436.395/437.385
Oscar 11 22 Nov 10:23:13 10:27:30 60° 285° (WNW) 10:31:46 145.826/435.025
HO-68 22 Nov 10:24:18 10:30:54 41° 295° (WNW) 10:37:29 435.675
TIGRISAT 22 Nov 10:29:27 10:33:42 62° 259° (W) 10:37:56 435.000
ESTCUBE 1 22 Nov 10:36:00 10:39:05 18° 93° (E) 10:42:09 437.505/2401.250
POLYITAN 1 22 Nov 10:37:17 10:41:33 71° 258° (WSW) 10:45:49 437.675
DOVE 4 22 Nov 10:40:06 10:43:30 25° 290° (WNW) 10:46:56 437.250
DX 1 22 Nov 10:40:09 10:44:17 44° 288° (WNW) 10:48:24 434.975-435.025
SEEDS 22 Nov 10:40:26 10:42:55 15° 294° (WNW) 10:45:24 437.485
UNISAT 6 22 Nov 10:40:55 10:45:01 44° 261° (W) 10:49:08 437.425
QB50P2 22 Nov 10:41:03 10:45:18 64° 259° (WSW) 10:49:33 145.880/145.840
DUCHIFAT 1 22 Nov 10:49:59 10:54:08 51° 260° (W) 10:58:18 145.980
VELOX 1 22 Nov 10:51:18 10:55:44 72° 102° (ESE) 11:00:07 145.980
ZACube-1 22 Nov 11:04:47 11:08:49 46° 287° (WNW) 11:12:55 437.345
GOMX 1 22 Nov 11:05:11 11:06:09 11° 296° (WNW) 11:07:07 467.674
AAUSAT CUBESAT 2 22 Nov 11:07:12 11:08:04 11° 297° (WNW) 11:08:56 437.432
NANOSAT C BR1 22 Nov 11:09:09 11:12:56 31° 263° (W) 11:16:44 145.865
ANTELSAT 22 Nov 11:10:08 11:13:26 21° 265° (W) 11:16:44 437.575/2403.000
GONETS M04 22 Nov 11:11:57 11:16:59 16° 298° (WNW) 11:22:04
AISAT 22 Nov 11:15:00 11:19:22 60° 286° (WNW) 11:23:42 437.250
QB50P1 22 Nov 11:18:49 11:22:18 24° 264° (W) 11:25:48 145.935-145.965
HUMSAT D 22 Nov 11:19:11 11:23:14 52° 286° (WNW) 11:27:18 437.325/437.525
DELFI C3 22 Nov 11:32:32 11:34:09 12° 295° (WNW) 11:35:45 145.870
SHINDAISAT 22 Nov 11:33:32 11:35:04 22° 305° (NW) 11:36:37 437.305
50 SAT 22 Nov 11:35:46 11:39:33 39° 287° (WNW) 11:43:20 437.505
FUNcube-1 22 Nov 11:41:54 11:44:53 19° 292° (WNW) 11:47:53 145.935
CUBEBUG 1 22 Nov 11:43:25 11:47:49 84° 284° (WNW) 11:52:09 437.445
POPSAT HIP 1 22 Nov 11:44:45 11:46:45 13° 268° (W) 11:48:46 437.405
SPROUT 22 Nov 11:48:44 11:52:08 23° 95° (E) 11:55:31 437.525
CUBEBUG 2 22 Nov 11:49:51 11:51:30 12° 295° (WNW) 11:53:11 437.445
TISAT 1 22 Nov 11:51:38 11:55:16 28° 96° (E) 11:58:52 437.305
BUGSAT 1 22 Nov 11:53:00 11:54:52 13° 268° (W) 11:56:44 437.445
UWE-3 22 Nov 11:59:08 12:00:22 11° 296° (WNW) 12:01:37 435.000/436.395/437.385
ESTCUBE 1 22 Nov 12:11:51 12:16:07 40° 289° (WNW) 12:20:20 437.505/2401.250
AUBIESAT-1 22 Nov 12:17:21 12:18:28 11° 94° (E) 12:19:35 437.475
M-CUBED/EXP-1 PRIME 22 Nov 12:18:42 12:20:51 13° 95° (E) 12:22:59 437.505
